This is the latest recevied weather packets stored in our database for station/object K0JRF-13. If no packets are shown the sender has not sent any weather packets the latest 10 day(s).
| Time | Temp. | Humidity | Pressure | Rain* | Wind** | Luminosity | Snow |
|---|---|---|---|---|---|---|---|
| 1787954393 | 21.67° C | 45% | 1021.3 hPa | 0 mm | - | - | - |
| 1787953793 | 21.67° C | 46% | 1021.3 hPa | 0 mm | - | - | - |
| 1787953193 | 21.67° C | 48% | 1021.3 hPa | 0 mm | - | - | - |
| 1787952593 | 21.11° C | 49% | 1021.3 hPa | 0 mm | - | - | - |
| 1787951993 | 21.11° C | 48% | 1021 hPa | 0 mm | - | - | - |
| 1787951393 | 21.67° C | 47% | 1021.3 hPa | 0 mm | - | - | - |
| 1787950793 | 21.11° C | 48% | 1021.3 hPa | 0 mm | - | - | - |
| 1787950193 | 21.11° C | 49% | 1021 hPa | 0 mm | - | - | - |
| 1787949593 | 21.11° C | 48% | 1021.3 hPa | 0 mm | - | - | - |
| 1787948993 | 20.56° C | 48% | 1021.3 hPa | 0 mm | - | - | - |
| 1787948393 | 21.11° C | 47% | 1021.3 hPa | 0 mm | - | - | - |
| 1787947793 | 20.56° C | 47% | 1021.3 hPa | 0 mm | - | - | - |
| 1787947193 | 30° C | 49% | 1021.3 hPa | 0 mm | - | - | - |
| 1787946593 | 20.56° C | 52% | 1021.7 hPa | 0 mm | - | - | - |
| 1787945993 | 20.56° C | 50% | 1021.7 hPa | 0 mm | - | - | - |
| 1787945393 | 20.56° C | 50% | 1021.7 hPa | 0 mm | - | - | - |
| 1787944793 | 20.56° C | 44% | 1021.7 hPa | 0 mm | - | - | - |
| 1787944193 | 20.56° C | 50% | 1022 hPa | 0 mm | - | - | - |
| 1787943594 | 20.56° C | 51% | 1022 hPa | 0 mm | - | - | - |
| 1787942993 | 20.56° C | 56% | 1022 hPa | 0 mm | - | - | - |
| 1787942393 | 20.56° C | 54% | 1021.7 hPa | 0 mm | - | - | - |
| 1787941793 | 20.56° C | 56% | 1021.7 hPa | 0 mm | - | - | - |
| 1787941193 | 20.56° C | 55% | 1022 hPa | 0 mm | - | - | - |
| 1787940593 | 20.56° C | 54% | 1021.7 hPa | 0 mm | - | - | - |
| 1787939993 | 20.56° C | 58% | 1022 hPa | 0 mm | - | - | - |
* Rain latest hour (hover to see other rain measurements)
** Current wind speed in m/s (hover to see current wind gust speed)